Liguria — IRKJ — position and weather

sailwx.info

Track history (hours):
 
Tides and Currents Weather Stations Pressure Air Temp Water Temp Dewpoint Dewpoint Depression Visibility Wind Speed Wind Dir Waves Ship Positions

Liguria

Last reported at 2014-Oct-20 03:30 UTC. Time now 2014-Oct-20 04:27 UTC.
Position N 44°18' E 008°29'.

Length 30 m.

Type: Tug. MMSI: 247228500.

Date/timePositionNaut miles runAvg speedWind from/ knotsBaromVisibWave heightAir tempDewpointWater temp
2014-Oct-20 03:30N 44°18' E 008°29'0 0.0
2014-Oct-19 16:04N 44°18' E 008°29'0 0.0
2014-Oct-19 15:13N 44°18' E 008°29'0 0.0
2014-Oct-19 14:28N 44°18' E 008°29'0 0.0
2014-Oct-19 11:22N 44°18' E 008°29'0 0.0
2014-Oct-18 11:13N 44°18' E 008°29'0 0.0
2014-Oct-18 08:16N 44°18' E 008°29'0 0.0
2014-Oct-18 07:31N 44°18' E 008°29'1 0.3
2014-Oct-18 05:15N 44°19' E 008°30'0 0.4
2014-Oct-18 04:32N 44°19' E 008°30'1 0.8
2014-Oct-18 03:32N 44°18' E 008°29'0 0.0
2014-Oct-17 03:31N 44°18' E 008°29'0 0.0
2014-Oct-17 02:31N 44°18' E 008°29'0 0.0
2014-Oct-17 01:31N 44°18' E 008°29'0 0.0
2014-Oct-17 00:25N 44°18' E 008°29'0 0.0
2014-Oct-15 18:23N 44°19' E 008°29'0 0.1
2014-Oct-15 16:04N 44°18' E 008°29'0 0.0
2014-Oct-15 15:22N 44°18' E 008°29'0 0.0
2014-Oct-15 07:28N 44°18' E 008°29'3 1.0
2014-Oct-15 04:23N 44°16' E 008°27'0 0.4
2014-Oct-15 03:31N 44°16' E 008°27'3 3.1
2014-Oct-15 02:31N 44°19' E 008°29'0 0.3
2014-Oct-15 01:29N 44°18' E 008°29'0 0.0
2014-Oct-15 00:32N 44°18' E 008°29'0 0.0
2014-Oct-14 23:32N 44°18' E 008°29'0 0.0
2014-Oct-14 13:29N 44°18' E 008°29'0 0.0
2014-Oct-14 08:20N 44°18' E 008°29'0 0.0
2014-Oct-14 07:30N 44°18' E 008°29'3 2.9
2014-Oct-14 06:33N 44°16' E 008°27'3 0.2
2014-Oct-13 17:33N 44°18' E 008°29'0 0.0
2014-Oct-13 16:29N 44°18' E 008°29'0 0.0
2014-Oct-13 15:33N 44°18' E 008°29'0 0.0
2014-Oct-13 14:31N 44°18' E 008°29'0 0.0
2014-Oct-13 13:33N 44°18' E 008°29'0 0.0
2014-Oct-13 12:33N 44°18' E 008°29'0 0.0
2014-Oct-13 11:33N 44°18' E 008°29'0 0.0
2014-Oct-13 10:33N 44°18' E 008°29'0 0.0
2014-Oct-13 09:33N 44°18' E 008°29'0 0.0
2014-Oct-13 08:33N 44°18' E 008°29'0 0.0
2014-Oct-13 07:33N 44°18' E 008°29'0 0.0
2014-Oct-13 06:33N 44°18' E 008°29'2 1.9
2014-Oct-13 05:33N 44°17' E 008°28'1 0.9
2014-Oct-13 04:33N 44°17' E 008°29'1 0.2
2014-Oct-12 21:33N 44°18' E 008°29'0 0.0
2014-Oct-12 20:34N 44°18' E 008°29'0 0.0
2014-Oct-12 19:33N 44°18' E 008°29'0 0.0
2014-Oct-12 18:33N 44°18' E 008°29'0 0.0
2014-Oct-12 17:34N 44°18' E 008°29'0 0.0
2014-Oct-12 16:34N 44°18' E 008°29'0 0.0
2014-Oct-12 15:32N 44°18' E 008°29'0 0.0
2014-Oct-12 14:33N 44°18' E 008°29'0 0.0
2014-Oct-12 13:32N 44°18' E 008°29'0 0.0
2014-Oct-12 12:32N 44°18' E 008°29'0 0.0
2014-Oct-12 11:34N 44°18' E 008°29'0 0.0
2014-Oct-12 10:28N 44°18' E 008°29'0 0.0
2014-Oct-12 09:33N 44°18' E 008°29'0 0.0
2014-Oct-12 08:34N 44°18' E 008°29'0 0.0
2014-Oct-12 07:33N 44°18' E 008°29'0 0.0
2014-Oct-12 06:33N 44°18' E 008°29'0 0.0
2014-Oct-12 05:33N 44°18' E 008°29'0 0.0
2014-Oct-12 04:16N 44°18' E 008°29'0 0.0
2014-Oct-12 03:33N 44°18' E 008°29'0 0.0
2014-Oct-12 02:34N 44°18' E 008°29'0 0.0
2014-Oct-12 01:33N 44°18' E 008°29'0 0.0
2014-Oct-12 00:32N 44°18' E 008°29'0 0.0
2014-Oct-11 23:33N 44°18' E 008°29'0 0.0
2014-Oct-11 22:17N 44°18' E 008°29'0 0.0
2014-Oct-11 21:16N 44°18' E 008°29'0 0.0
2014-Oct-11 20:16N 44°18' E 008°29'0 0.0
2014-Oct-11 17:18N 44°18' E 008°29'0 0.0
2014-Oct-11 16:33N 44°18' E 008°29'0 0.0
2014-Oct-11 15:33N 44°18' E 008°29'0 0.0
2014-Oct-11 14:29N 44°18' E 008°29'0 0.0
2014-Oct-11 13:23N 44°18' E 008°29'0 0.0
2014-Oct-11 12:10N 44°18' E 008°29'0 0.0
2014-Oct-11 11:33N 44°18' E 008°29'0 0.5
2014-Oct-11 10:32N 44°19' E 008°30'0 0.4
2014-Oct-11 09:27N 44°19' E 008°30'0 0.1
2014-Oct-11 08:22N 44°19' E 008°30'1 1.0
2014-Oct-11 07:33N 44°18' E 008°29'0 0.0
2014-Oct-11 06:24N 44°18' E 008°29'0 0.0
2014-Oct-11 05:18N 44°18' E 008°29'0 0.0
2014-Oct-11 04:33N 44°18' E 008°29'  
Track history (hours):
 
Tides and Currents Weather Stations Pressure Air Temp Water Temp Dewpoint Dewpoint Depression Visibility Wind Speed Wind Dir Waves Ship Positions

Liguria

Last reported at 2014-Oct-20 03:30 UTC. Time now 2014-Oct-20 04:27 UTC.
Position N 44°18' E 008°29'.

Length 30 m.

Type: Tug. MMSI: 247228500.

Date/timePositionNaut miles runAvg speedWind from/ knotsBaromVisibWave heightAir tempDewpointWater temp
2014-Oct-20 03:30N 44°18' E 008°29'0 0.0
2014-Oct-19 16:04N 44°18' E 008°29'0 0.0
2014-Oct-19 15:13N 44°18' E 008°29'0 0.0
2014-Oct-19 14:28N 44°18' E 008°29'0 0.0
2014-Oct-19 11:22N 44°18' E 008°29'0 0.0
2014-Oct-18 11:13N 44°18' E 008°29'0 0.0
2014-Oct-18 08:16N 44°18' E 008°29'0 0.0
2014-Oct-18 07:31N 44°18' E 008°29'1 0.3
2014-Oct-18 05:15N 44°19' E 008°30'0 0.4
2014-Oct-18 04:32N 44°19' E 008°30'1 0.8
2014-Oct-18 03:32N 44°18' E 008°29'0 0.0
2014-Oct-17 03:31N 44°18' E 008°29'0 0.0
2014-Oct-17 02:31N 44°18' E 008°29'0 0.0
2014-Oct-17 01:31N 44°18' E 008°29'0 0.0
2014-Oct-17 00:25N 44°18' E 008°29'0 0.0
2014-Oct-15 18:23N 44°19' E 008°29'0 0.1
2014-Oct-15 16:04N 44°18' E 008°29'0 0.0
2014-Oct-15 15:22N 44°18' E 008°29'0 0.0
2014-Oct-15 07:28N 44°18' E 008°29'3 1.0
2014-Oct-15 04:23N 44°16' E 008°27'0 0.4
2014-Oct-15 03:31N 44°16' E 008°27'3 3.1
2014-Oct-15 02:31N 44°19' E 008°29'0 0.3
2014-Oct-15 01:29N 44°18' E 008°29'0 0.0
2014-Oct-15 00:32N 44°18' E 008°29'0 0.0
2014-Oct-14 23:32N 44°18' E 008°29'0 0.0
2014-Oct-14 13:29N 44°18' E 008°29'0 0.0
2014-Oct-14 08:20N 44°18' E 008°29'0 0.0
2014-Oct-14 07:30N 44°18' E 008°29'3 2.9
2014-Oct-14 06:33N 44°16' E 008°27'3 0.2
2014-Oct-13 17:33N 44°18' E 008°29'0 0.0
2014-Oct-13 16:29N 44°18' E 008°29'0 0.0
2014-Oct-13 15:33N 44°18' E 008°29'0 0.0
2014-Oct-13 14:31N 44°18' E 008°29'0 0.0
2014-Oct-13 13:33N 44°18' E 008°29'0 0.0
2014-Oct-13 12:33N 44°18' E 008°29'0 0.0
2014-Oct-13 11:33N 44°18' E 008°29'0 0.0
2014-Oct-13 10:33N 44°18' E 008°29'0 0.0
2014-Oct-13 09:33N 44°18' E 008°29'0 0.0
2014-Oct-13 08:33N 44°18' E 008°29'0 0.0
2014-Oct-13 07:33N 44°18' E 008°29'0 0.0
2014-Oct-13 06:33N 44°18' E 008°29'2 1.9
2014-Oct-13 05:33N 44°17' E 008°28'1 0.9
2014-Oct-13 04:33N 44°17' E 008°29'1 0.2
2014-Oct-12 21:33N 44°18' E 008°29'0 0.0
2014-Oct-12 20:34N 44°18' E 008°29'0 0.0
2014-Oct-12 19:33N 44°18' E 008°29'0 0.0
2014-Oct-12 18:33N 44°18' E 008°29'0 0.0
2014-Oct-12 17:34N 44°18' E 008°29'0 0.0
2014-Oct-12 16:34N 44°18' E 008°29'0 0.0
2014-Oct-12 15:32N 44°18' E 008°29'0 0.0
2014-Oct-12 14:33N 44°18' E 008°29'0 0.0
2014-Oct-12 13:32N 44°18' E 008°29'0 0.0
2014-Oct-12 12:32N 44°18' E 008°29'0 0.0
2014-Oct-12 11:34N 44°18' E 008°29'0 0.0
2014-Oct-12 10:28N 44°18' E 008°29'0 0.0
2014-Oct-12 09:33N 44°18' E 008°29'0 0.0
2014-Oct-12 08:34N 44°18' E 008°29'0 0.0
2014-Oct-12 07:33N 44°18' E 008°29'0 0.0
2014-Oct-12 06:33N 44°18' E 008°29'0 0.0
2014-Oct-12 05:33N 44°18' E 008°29'0 0.0
2014-Oct-12 04:16N 44°18' E 008°29'0 0.0
2014-Oct-12 03:33N 44°18' E 008°29'0 0.0
2014-Oct-12 02:34N 44°18' E 008°29'0 0.0
2014-Oct-12 01:33N 44°18' E 008°29'0 0.0
2014-Oct-12 00:32N 44°18' E 008°29'0 0.0
2014-Oct-11 23:33N 44°18' E 008°29'0 0.0
2014-Oct-11 22:17N 44°18' E 008°29'0 0.0
2014-Oct-11 21:16N 44°18' E 008°29'0 0.0
2014-Oct-11 20:16N 44°18' E 008°29'0 0.0
2014-Oct-11 17:18N 44°18' E 008°29'0 0.0
2014-Oct-11 16:33N 44°18' E 008°29'0 0.0
2014-Oct-11 15:33N 44°18' E 008°29'0 0.0
2014-Oct-11 14:29N 44°18' E 008°29'0 0.0
2014-Oct-11 13:23N 44°18' E 008°29'0 0.0
2014-Oct-11 12:10N 44°18' E 008°29'0 0.0
2014-Oct-11 11:33N 44°18' E 008°29'0 0.5
2014-Oct-11 10:32N 44°19' E 008°30'0 0.4
2014-Oct-11 09:27N 44°19' E 008°30'0 0.1
2014-Oct-11 08:22N 44°19' E 008°30'1 1.0
2014-Oct-11 07:33N 44°18' E 008°29'0 0.0
2014-Oct-11 06:24N 44°18' E 008°29'0 0.0
2014-Oct-11 05:18N 44°18' E 008°29'0 0.0
2014-Oct-11 04:33N 44°18' E 008°29'  

Dump ship's entire track history